When you browse on this site, cookies collect data to enhance your experience and personalize the content and advertising you see.
Visit our Privacy Policy to learn more. By continuing to use the site, you agree to this use of cookies and data.
  • In Czech Republic
  • List of Countries
  • For 7 days
  • Water Temperature
  • Satellite Maps
  • Weather Map
  • Weather Widgets
  • user-avatar
    Login

    Hourly Weather Shusha

    Today, 23 July, Tuesday

    Time Temperature Precipitation Wind Pressure Humidity
    00:00 +21°C° 0 mm 1 mps 657 mmHg 82%
    01:00 +21°C° 0 mm 1 mps 657 mmHg 80%
    02:00 +20°C° 0 mm 1 mps 657 mmHg 79%
    03:00 +20°C° 0 mm 1 mps 657 mmHg 78%
    04:00 +21°C° 0 mm 1 mps 658 mmHg 76%
    05:00 +21°C° 0 mm 1 mps 658 mmHg 74%
    06:00 +21°C° 0 mm 1 mps 658 mmHg 72%
    07:00 +23°C° 0 mm 2 mps 659 mmHg 65%
    08:00 +24°C° 0 mm 2 mps 659 mmHg 58%
    09:00 +26°C° 0 mm 3 mps 659 mmHg 51%
    10:00 +27°C° 0 mm 3 mps 659 mmHg 48%
    11:00 +28°C° 0 mm 3 mps 659 mmHg 44%
    12:00 +30°C° 0 mm 4 mps 659 mmHg 41%
    13:00 +30°C° 0 mm 4 mps 659 mmHg 40%
    14:00 +30°C° 0 mm 4 mps 658 mmHg 40%
    15:00 +30°C° 0 mm 4 mps 657 mmHg 39%
    16:00 +29°C° 0 mm 4 mps 657 mmHg 43%
    17:00 +28°C° 0 mm 3 mps 657 mmHg 46%
    18:00 +27°C° 0 mm 3 mps 657 mmHg 50%
    19:00 +25°C° 0 mm 2 mps 657 mmHg 55%
    20:00 +23°C° 0 mm 1 mps 656 mmHg 60%
    21:00 +22°C° 0 mm 1 mps 656 mmHg 65%
    22:00 +21°C° 0 mm 1 mps 656 mmHg 65%
    23:00 +21°C° 0 mm 1 mps 656 mmHg 66%

    Tomorrow, 24 July, Wednesday

    Time Temperature Precipitation Wind Pressure Humidity
    00:00 +21°C° 0 mm 1 mps 656 mmHg 67%
    01:00 +20°C° 0 mm 1 mps 656 mmHg 67%
    02:00 +20°C° 0 mm 1 mps 656 mmHg 67%
    03:00 +20°C° 0 mm 1 mps 655 mmHg 67%
    04:00 +20°C° 0 mm 1 mps 656 mmHg 67%
    05:00 +20°C° 0 mm 1 mps 656 mmHg 66%
    06:00 +21°C° 0 mm 1 mps 656 mmHg 66%
    07:00 +22°C° 0 mm 1 mps 656 mmHg 60%
    08:00 +24°C° 0 mm 2 mps 657 mmHg 55%
    09:00 +25°C° 0 mm 2 mps 657 mmHg 49%
    10:00 +26°C° 0 mm 2 mps 657 mmHg 46%
    11:00 +28°C° 0 mm 2 mps 657 mmHg 44%
    12:00 +29°C° 0 mm 3 mps 657 mmHg 41%
    13:00 +30°C° 0 mm 3 mps 657 mmHg 40%
    14:00 +30°C° 0 mm 3 mps 656 mmHg 39%
    15:00 +31°C° 0 mm 3 mps 656 mmHg 39%
    16:00 +30°C° 0 mm 2 mps 656 mmHg 41%
    17:00 +29°C° 0 mm 2 mps 656 mmHg 44%
    18:00 +28°C° 0 mm 2 mps 656 mmHg 47%
    19:00 +27°C° 0 mm 1 mps 656 mmHg 52%
    20:00 +25°C° 0 mm 1 mps 656 mmHg 57%
    21:00 +23°C° 0 mm 1 mps 656 mmHg 62%
    22:00 +23°C° 0 mm 1 mps 656 mmHg 62%
    23:00 +22°C° 0 mm 1 mps 656 mmHg 62%

    Day after tomorrow, 25 July, Thursday

    Time Temperature Precipitation Wind Pressure Humidity
    00:00 +22°C° 0 mm 1 mps 656 mmHg 62%
    01:00 +22°C° 0 mm 1 mps 656 mmHg 62%
    02:00 +22°C° 0 mm 1 mps 656 mmHg 62%
    03:00 +21°C° 0 mm 1 mps 656 mmHg 61%
    04:00 +22°C° 0 mm 1 mps 656 mmHg 60%
    05:00 +22°C° 0 mm 1 mps 657 mmHg 59%
    06:00 +23°C° 0 mm 1 mps 657 mmHg 59%
    07:00 +24°C° 0 mm 1 mps 657 mmHg 55%
    08:00 +26°C° 0 mm 1 mps 658 mmHg 51%
    09:00 +28°C° 0 mm 2 mps 658 mmHg 47%
    10:00 +29°C° 0 mm 2 mps 658 mmHg 43%
    11:00 +30°C° 0 mm 2 mps 658 mmHg 39%
    12:00 +33°C° 0 mm 3 mps 658 mmHg 35%
    13:00 +33°C° 0 mm 3 mps 658 mmHg 35%
    14:00 +33°C° 0 mm 3 mps 658 mmHg 35%
    15:00 +34°C° 0 mm 3 mps 657 mmHg 34%
    16:00 +33°C° 0 mm 3 mps 657 mmHg 38%
    17:00 +31°C° 0 mm 3 mps 657 mmHg 43%
    18:00 +30°C° 0 mm 2 mps 657 mmHg 47%
    19:00 +28°C° 0 mm 2 mps 657 mmHg 51%
    20:00 +26°C° 0 mm 2 mps 657 mmHg 56%
    21:00 +25°C° 0 mm 1 mps 657 mmHg 60%
    22:00 +24°C° 0 mm 1 mps 657 mmHg 62%
    23:00 +23°C° 0 mm 2 mps 657 mmHg 65%

    26 July, Friday

    Time Temperature Precipitation Wind Pressure Humidity
    00:00 +21°C° 0 mm 2 mps 657 mmHg 67%
    01:00 +20°C° 0 mm 2 mps 657 mmHg 68%
    02:00 +20°C° 0 mm 1 mps 657 mmHg 69%
    03:00 +20°C° 0 mm 1 mps 657 mmHg 70%
    04:00 +20°C° 0 mm 1 mps 657 mmHg 68%
    05:00 +21°C° 0 mm 1 mps 658 mmHg 66%
    06:00 +19°C° 0 mm 0 mps 658 mmHg 64%
    07:00 +23°C° 0 mm 1 mps 658 mmHg 59%
    08:00 +24°C° 0 mm 2 mps 659 mmHg 54%
    09:00 +25°C° 0 mm 2 mps 659 mmHg 49%
    10:00 +26°C° 0 mm 3 mps 659 mmHg 46%
    11:00 +27°C° 0 mm 3 mps 659 mmHg 44%
    12:00 +28°C° 0 mm 3 mps 659 mmHg 42%
    13:00 +29°C° 0 mm 4 mps 659 mmHg 41%
    14:00 +29°C° 0 mm 4 mps 658 mmHg 41%
    15:00 +29°C° 0 mm 4 mps 658 mmHg 40%
    16:00 +28°C° 0 mm 4 mps 658 mmHg 45%
    17:00 +27°C° 0 mm 4 mps 657 mmHg 49%
    18:00 +25°C° 0 mm 4 mps 657 mmHg 54%
    19:00 +24°C° 0 mm 3 mps 657 mmHg 60%
    20:00 +21°C° 0 mm 2 mps 657 mmHg 67%
    21:00 +20°C° 0 mm 1 mps 658 mmHg 73%
    22:00 +20°C° 0 mm 1 mps 658 mmHg 75%
    23:00 +19°C° 0 mm 1 mps 658 mmHg 76%

    27 July, Saturday

    Time Temperature Precipitation Wind Pressure Humidity
    00:00 +19°C° 0 mm 1 mps 658 mmHg 77%
    01:00 +19°C° 0 mm 1 mps 657 mmHg 78%
    02:00 +18°C° 0 mm 1 mps 657 mmHg 78%
    03:00 +18°C° 0 mm 1 mps 657 mmHg 79%
    04:00 +18°C° 0 mm 1 mps 657 mmHg 77%
    05:00 +19°C° 0 mm 1 mps 657 mmHg 74%
    06:00 +19°C° 0 mm 1 mps 657 mmHg 72%
    07:00 +20°C° 0 mm 2 mps 658 mmHg 66%
    08:00 +21°C° 0 mm 2 mps 658 mmHg 60%
    09:00 +22°C° 0 mm 3 mps 658 mmHg 54%
    10:00 +24°C° 0 mm 3 mps 658 mmHg 52%
    11:00 +25°C° 0 mm 3 mps 658 mmHg 49%
    12:00 +26°C° 0 mm 2 mps 658 mmHg 46%
    13:00 +27°C° 0 mm 3 mps 657 mmHg 44%
    14:00 +27°C° 0 mm 3 mps 657 mmHg 42%
    15:00 +28°C° 0 mm 3 mps 657 mmHg 40%
    16:00 +27°C° 0 mm 3 mps 657 mmHg 43%
    17:00 +27°C° 0 mm 3 mps 656 mmHg 45%
    18:00 +26°C° 0 mm 3 mps 656 mmHg 48%
    19:00 +24°C° 0 mm 2 mps 656 mmHg 54%
    20:00 +21°C° 0 mm 2 mps 656 mmHg 60%
    21:00 +20°C° 0 mm 1 mps 656 mmHg 66%
    22:00 +20°C° 0 mm 1 mps 655 mmHg 67%
    23:00 +19°C° 0 mm 1 mps 655 mmHg 68%

    28 July, Sunday

    Time Temperature Precipitation Wind Pressure Humidity
    00:00 +19°C° 0 mm 1 mps 655 mmHg 69%
    01:00 +19°C° 0 mm 1 mps 655 mmHg 70%
    02:00 +18°C° 0 mm 1 mps 655 mmHg 71%
    03:00 +18°C° 0 mm 1 mps 654 mmHg 72%
    04:00 +19°C° 0 mm 1 mps 655 mmHg 70%
    05:00 +19°C° 0 mm 1 mps 655 mmHg 69%
    06:00 +19°C° 0 mm 1 mps 655 mmHg 68%
    07:00 +21°C° 0 mm 1 mps 655 mmHg 62%
    08:00 +23°C° 0 mm 2 mps 656 mmHg 56%
    09:00 +24°C° 0 mm 2 mps 656 mmHg 50%
    10:00 +25°C° 0 mm 2 mps 656 mmHg 47%
    11:00 +26°C° 0 mm 3 mps 656 mmHg 45%
    12:00 +27°C° 0 mm 3 mps 656 mmHg 42%
    13:00 +28°C° 0 mm 3 mps 655 mmHg 41%
    14:00 +28°C° 0 mm 3 mps 655 mmHg 40%
    15:00 +29°C° 0 mm 3 mps 655 mmHg 39%
    16:00 +28°C° 0.1 mm 3 mps 654 mmHg 42%
    17:00 +27°C° 0.1 mm 3 mps 654 mmHg 45%
    18:00 +26°C° 0.1 mm 2 mps 654 mmHg 48%
    19:00 +25°C° 0 mm 2 mps 654 mmHg 52%
    20:00 +23°C° 0 mm 2 mps 654 mmHg 57%
    21:00 +21°C° 0 mm 1 mps 654 mmHg 62%
    22:00 +21°C° 0 mm 1 mps 654 mmHg 63%
    23:00 +20°C° 0 mm 1 mps 654 mmHg 64%
    Show more